Regional Weather Roundup
Issued by NWS

Current Version | Previous Version | Text Only | Print | Product List | Glossary On
Versions: 1 2 3 4 5 6 7 8 9 10 11 12 13 14 15 16 17 18 19 20 21 22 23 24 25 26 27 28 29 30 31 32 33 34 35 36 37 38 39 40 41 42 43 44 45 46 47 48 49 50
000
ASUS45 KSLC 012210
RWRUT

UTAH REGIONAL WEATHER ROUNDUP
NATIONAL WEATHER SERVICE SALT LAKE CITY UT
400 PM MDT MON SEP 01 2014

UTZ001>011-023>025-012300-

NORTHERN UTAH

CITY           SKY/WX    TMP DP  RH WIND       PRES   REMARKS
HILL AFB       SUNNY     76  35  22 W9        30.11S
LOGAN          SUNNY     76  39  26 VRB3      30.07F
OGDEN          SUNNY     77  33  20 W12       30.08S
PROVO AIRPORT  SUNNY     79  41  25 W7        30.08F
SALT LAKE CITY MOSUNNY   79  37  22 VRB3      30.07S
VERNAL         SUNNY     76  40  27 SE6       30.05F
WENDOVER       SUNNY     81  36  19 SE10      30.05F
HEBER CITY     SUNNY     77  32  19 SW14      30.11S
WEST JORDAN    SUNNY     79  46  31 N9        30.09F

$$

UTZ012>022-026-027-012300-

SOUTHERN UTAH

CITY           SKY/WX    TMP DP  RH WIND       PRES   REMARKS
BRYCE CANYON   SUNNY     78  32  18 NW18G28   30.22F
CEDAR CITY     SUNNY     86  31  13 MISG      30.07F
MILFORD        SUNNY     87  34  15 NE12      30.04F
MOAB/CYNLANDS  SUNNY     87  32  14 NW9G17    29.97F
PRICE          SUNNY     82  29  14 SW14G22   30.09F
ST GEORGE      CLEAR     99  43  14 W13       29.87F HX  94
KANAB            N/A     91  36  14 SW8       30.04F

$$

REGIONAL REPORTS     COLORADO/ARIZONA

CITY           SKY/WX    TMP DP  RH WIND       PRES   REMARKS
CRAIG, CO      SUNNY     75  35  23 W17G28    30.11S
GRAND JUNCTION SUNNY     84  36  18 W12G18    30.01F
RIFLE          MOSUNNY   81  32  17 W12G28    30.05S
MONTROSE       SUNNY     84  35  17 N10       30.07F
CORTEZ         SUNNY     87  30  13 W15G22    30.09F
PAGE, AZ       SUNNY     96  34  11 MISG      29.95F HX  91
GRAND CANYON   SUNNY     82  36  19 S9G22     30.18F
KINGMAN        SUNNY     97  38  13 SW17G28   29.92F HX  92
FLAGSTAFF      SUNNY     79  40  24 SW12G21   30.22F

$$

REGIONAL REPORTS    NEVADA/IDAHO/WYOMING

CITY           SKY/WX    TMP DP  RH WIND       PRES   REMARKS
LAS VEGAS, NV  SUNNY    104  36   9 VRB5      29.75F HX  98
ELY            SUNNY     83  29  14 W10       30.11F
ELKO           SUNNY     81  26  13 SW7       30.06F
POCATELLO, ID  MOSUNNY   74  36  25 W15       30.09S
BURLEY         SUNNY     72  40  31 W10G20    30.07F
EVANSTON, WY   MOSUNNY   68  31  25 W20G29    30.20S
ROCK SPRINGS   SUNNY     71  29  21 W28G36    30.13S

$$



USA.gov is the U.S. government's official web portal to all federal, state and local government web resources and services.